Home   Weather   Charlottetown   Past weeks

Flag for Canada Past Weather in Charlottetown, Prince Edward Island, Canada — Yesterday and Last 2 Weeks

Now
30 °F

Passing clouds.


Feels Like: 24 °F
Forecast: 29 / 45 °F
Wind: 6 mph from Northeast

Location: Charlottetown

Current Time: Apr 24, 2017 at 9:59:29 pm

Latest Report: Apr 24, 2017 at 9:00 pm


Visibility: 15 mi

Pressure: 30.27 "Hg

Humidity: 75%

Dew Point: 23 °F

Location of CharlottetownLocation

Past Weather in Charlottetown — Graph

°F

Charlottetown Temperature Yesterday

Maximum temperature yesterday: 41 °F (at 8:00 pm)
Minimum temperature yesterday: 32 °F (at 3:00 am)
Average temperature yesterday: 36 °F

High & Low Weather Summary for the Past Weeks

 TemperatureHumidityPressure
High63 °F (Apr 11, 1:00 pm)100% (Apr 16, 4:00 pm)30.69 "Hg (Apr 16, 4:00 pm)
Low18 °F (Apr 19, 6:00 am)30% (Apr 15, 12:00 pm)29.65 "Hg (Apr 17, 5:00 am)
Average38 °F74%30.13 "Hg
* Reported Apr 9 8:02 pm — Apr 24 8:00 pm, Charlottetown, Weather by CustomWeather, © 2017

Note: Actual official high and low records may vary slightly from our data, if they occured in-between our weather recording intervals... More about our weather records

Advertising

Charlottetown Weather History for the Previous 24 Hours

Scroll right to see more
 ConditionsComfort  
Time TempWeatherWind HumidityBarometerVisibility
8:00 pm
Mon, Apr 24
36 °FPassing clouds.10 mph60%30.25 "Hg15 mi
7:00 pm41 °FPassing clouds.9 mph53%30.22 "Hg15 mi
6:00 pm45 °FPartly sunny.8 mph53%30.20 "Hg15 mi
5:00 pm45 °FPartly sunny.6 mph53%30.18 "Hg15 mi
4:00 pm46 °FPartly sunny.9 mph53%30.17 "Hg15 mi
3:00 pm45 °FBroken clouds.7 mph57%30.17 "Hg15 mi
2:00 pm46 °FPartly sunny.10 mph53%30.16 "Hg15 mi
1:00 pm45 °FScattered clouds.8 mph61%30.15 "Hg15 mi
12:00 pm45 °FScattered clouds.12 mph61%30.14 "Hg15 mi
11:00 am43 °FPartly sunny.13 mph71%30.14 "Hg15 mi
10:00 am45 °FPartly sunny.12 mph76%30.11 "Hg15 mi
9:00 am45 °FPartly sunny.12 mph76%30.09 "Hg15 mi
8:39 am43 °FPartly sunny.13 mph81%30.08 "Hg15 mi
8:00 am41 °FPassing clouds.12 mph87%30.06 "Hg15 mi
7:00 am39 °FPartly sunny.13 mph87%30.04 "Hg15 mi
6:00 am39 °FPassing clouds.16 mph87%30.01 "Hg15 mi
5:00 am37 °FPassing clouds.13 mph87%30.00 "Hg15 mi
3:00 am37 °FPassing clouds.14 mph87%30.01 "Hg15 mi
2:00 am37 °FPassing clouds.12 mph87%30.01 "Hg15 mi
1:00 am37 °FMostly cloudy.12 mph87%30.02 "Hg15 mi
12:00 am37 °FOvercast.9 mph87%30.00 "Hg15 mi
11:00 pm
Sun, Apr 23
37 °FOvercast.6 mph87%30.01 "Hg15 mi
10:00 pm37 °FOvercast.6 mph81%30.00 "Hg15 mi
9:00 pm39 °FPassing clouds.6 mph75%30.00 "Hg15 mi
Weather by CustomWeather, © 2017

See weather overviewHow to use our weather pages